Home   Weather   Lubbock   Past weeks

Flag for USA Past Weather in Lubbock, Texas, USA — Yesterday and Last 2 Weeks

Now
73 °F

Passing clouds.


Feels Like: 76 °F
Forecast: 53 / 77 °F
Wind: 6 mph from North

Location: Lubbock International Airport

Current Time: Sep 27, 2016 at 12:24:03 PM

Latest Report: Sep 27, 2016 at 11:53 AM


Visibility: 10 mi

Pressure: 30.11 "Hg (26.90 "Hg at 976m altitude)

Humidity: 27%

Dew Point: 37 °F

Location of LubbockLocation

Past Weather in Lubbock — Graph

°F

Lubbock Temperature Yesterday

Maximum temperature yesterday: 71 °F (at 12:53 PM)
Minimum temperature yesterday: 56 °F (at 7:53 AM)
Average temperature yesterday: 62 °F

High & Low Weather Summary for the Past Weeks

 TemperatureHumidityPressure
High92 °F (Sep 19, 3:53 PM)97% (Sep 13, 11:53 PM)30.29 "Hg (Sep 13, 11:53 PM)
Low50 °F (Sep 27, 6:53 AM)25% (Sep 19, 4:53 PM)29.76 "Hg (Sep 23, 5:53 PM)
Average72 °F70%29.97 "Hg
* Reported Sep 12 10:53 AM — Sep 27 10:53 AM, Lubbock, Weather by CustomWeather, © 2016

Note: Actual official high and low records may vary slightly from our data, if they occured in-between our weather recording intervals... More about our weather records

Advertising

Lubbock Weather History for the Previous 24 Hours

Scroll right to see more
 ConditionsComfort  
Time TempWeatherWind HumidityBarometerVisibility
10:53 AM
Tue, Sep 27
70 °FScattered clouds.8 mph30%30.14 "Hg10 mi
9:53 AM64 °FBroken clouds.7 mph47%30.14 "Hg10 mi
8:53 AM55 °FBroken clouds.7 mph67%30.16 "Hg10 mi
7:53 AM51 °FBroken clouds.6 mph77%30.17 "Hg10 mi
6:53 AM50 °FPartly cloudy.6 mph80%30.15 "Hg10 mi
5:53 AM52 °FPartly cloudy.7 mph77%30.15 "Hg10 mi
4:53 AM52 °FPassing clouds.6 mph77%30.15 "Hg10 mi
3:53 AM52 °FOvercast.6 mph77%30.17 "Hg10 mi
2:53 AM54 °FOvercast.3 mph64%30.17 "Hg10 mi
1:53 AM54 °FOvercast.No wind67%30.19 "Hg10 mi
12:53 AM56 °FPassing clouds.No wind55%30.18 "Hg10 mi
11:53 PM
Mon, Sep 26
57 °FOvercast.No wind53%30.19 "Hg10 mi
10:53 PM58 °FOvercast.3 mph54%30.19 "Hg10 mi
9:53 PM57 °FOvercast.5 mph60%30.20 "Hg10 mi
8:53 PM59 °FPassing clouds.6 mph54%30.20 "Hg10 mi
7:53 PM60 °FPassing clouds.5 mph52%30.19 "Hg10 mi
6:53 PM65 °FPartly sunny.7 mph36%30.18 "Hg10 mi
5:53 PM67 °FPartly sunny.9 mph33%30.18 "Hg10 mi
4:53 PM69 °FBroken clouds.14 mph30%30.19 "Hg10 mi
3:53 PM69 °FPartly sunny.9 mph31%30.19 "Hg10 mi
2:53 PM71 °FBroken clouds.14 mph29%30.21 "Hg10 mi
1:53 PM70 °FBroken clouds.14 mph28%30.23 "Hg10 mi
12:53 PM71 °FScattered clouds.18 mph27%30.26 "Hg10 mi
Weather by CustomWeather, © 2016

See weather overviewHow to use our weather pages